Regional Weather Roundup
Issued by NWS Newport/Morehead, NC

Current Version | Previous Version | Text Only | Print | Product List | Glossary On
Versions: 1 2 3 4 5 6 7 8 9 10 11 12 13 14 15 16 17 18 19 20 21 22 23 24 25 26 27 28 29 30 31 32 33 34 35 36 37 38 39 40 41 42 43 44 45 46 47 48 49 50
000
ASUS42 KMHX 241313
RWRMHX
WEATHER ROUNDUP FOR EASTERN NORTH CAROLINA
NATIONAL WEATHER SERVICE NEWPORT/MOREHEAD CITY NC
800 AM EST FRI NOV 24 2017

NOTE: "FAIR" INDICATES FEW OR NO CLOUDS BELOW 12,000 FEET
WITH NO SIGNIFICANT WEATHER AND/OR OBSTRUCTIONS TO VISIBILITY

NCZ015>017-031-032-045>047-102-103-241400-
NORTH COAST

CITY           SKY/WX    TMP DP  RH WIND       PRES   REMARKS
EDENTON        SUNNY     32  30  93 CALM      30.10R
ELIZABETH CITY SUNNY     39  33  79 N10       30.09R
KITTY HAWK     SUNNY     47  37  70 NE3       30.05S
MANTEO         SUNNY     47  39  74 NE8       30.07S

$$

NCZ045>047-081-094-103-104-241400-
CENTRAL COAST

CITY           SKY/WX    TMP DP  RH WIND       PRES   REMARKS
FRISCO         CLOUDY    52  46  80 NE9       30.03S

$$

NCZ095-097-098-100-101-241400-
SOUTHERN COAST

CITY           SKY/WX    TMP DP  RH WIND       PRES   REMARKS
BEAUFORT       PTSUNNY   46  40  79 N10       30.03S
CEDAR ISLAND   NOT AVBL
JACKSONVILLE   MOSUNNY   38  35  89 N9        30.05R
PINEY ISLAND     N/A    N/A N/A N/A N12       30.04
WILMINGTON     MOSUNNY   41  35  79 NE13      30.03R


$$

NCZ011>013-027>030-043-044-078>080-089-090>093-098-241400-
COASTAL PLAIN

CITY           SKY/WX    TMP DP  RH WIND       PRES   REMARKS
AHOSKIE        SUNNY     26  25  96 CALM      30.11R
CLINTON        SUNNY     34  34  99 NE3       30.07S
ELIZABETHTOWN  NOT AVBL
GOLDSBORO      SUNNY     35  31  85 NW3       30.07R
GREENVILLE     SUNNY     28  28 100 N3        30.10S
HAVELOCK         N/A     43  37  79 NE12      30.06R
KENANSVILLE    SUNNY     32  30  93 N3        30.07R
KINSTON        SUNNY     32  32 100 CALM      30.09R
NEW BERN       SUNNY     37  35  92 N7        30.08R
RICHLANDS      MOSUNNY   36  33  89 N6        30.07R
ROCKY MOUNT    SUNNY     30  30 100 CALM      30.11R FOG
WASHINGTON     SUNNY     32  30  92 CALM      30.08S
WHITEVILLE     SUNNY     36  34  92 NE5       30.04R

$$

AMZ130-135-150-152-154-156-158-170-250-252-270-ANZ085-086-088-633-658-670-241400-
MARINE OBSERVATIONS

STATION/POSITION TIME  TEMP    WIND        PRES    WAVE   SWELL
                       AIR SEA DIR/SP/G            HT/PER HT/PER
                 (UTC) (F)     (DEG/KT/KT) (MB)    (FT/S) (FT/S)
CHESAPEAKE LIGHT NOT AVBL
64 E VA BEACH    1250   50 59   30/ 10/ 14 1018.7    5/ 9   5/ 9
DUCK             1248   49 56   40/ 12/ 15 1017.8
2 E DUCK         1300      59                N/A     5/10   2/11
OREGON INLET     1236   50 56   20/ 12/ 15 1017.6
13E OREGON INLT  1248      62                N/A     6/11   7/11
HATTERAS CG      1248   52 57   30/ 14/ 19 1016.5
DIAMOND BUOY     1300   59      20/ 21/ 25 1016.3
CAPE LOOKOUT     1200           20/ 17/ 19 1016.4
BEAUFORT LAB     1248   46 57   20/ 11/ 14 1016.7
30 SE NEW RVR IN 1208   54 67   50/ 17/ 21 1015.4
30 SE NEW RVR IN 1300      67                N/A     7/ 9   2/11
27 SE WRIGHTSVLE 1208   56 72   50/ 21/ 29 1015.3
5 SE WRIGHTSVLE  1208   50 63   30/ 16/ 21 1015.6
225 S CAPE HAT   1250   71 77   90/ 12/ 16 1010.4    9/ 8   8/ 8
41 SE CHARLESTON 1300           30/ 25/ 31 1013.2

$$



USA.gov is the U.S. government's official web portal to all federal, state and local government web resources and services.